Time,TemperatureF,DewpointF,PressureIn,WindDirection,WindDirectionDegrees,WindSpeedMPH,WindSpeedGustMPH,Humidity,HourlyPrecipIn,Conditions,Clouds,dailyrainin,SoftwareType,DateUTC
2013-01-19 00:07:00,44.5,34.0,30.26,SE,141,1.0,5.0,68,0.00,,,0.00,weatherlink.com 1.10,2013-01-19 06:07:00,
2013-01-19 00:22:00,44.2,34.0,30.26,SE,146,2.0,4.0,68,0.00,,,0.00,weatherlink.com 1.10,2013-01-19 06:22:00,
2013-01-19 00:37:00,44.0,34.0,30.26,SSE,160,4.0,6.0,69,0.00,,,0.00,weatherlink.com 1.10,2013-01-19 06:37:00,
2013-01-19 00:52:00,44.1,34.0,30.26,SE,138,1.0,5.0,69,0.00,,,0.00,weatherlink.com 1.10,2013-01-19 06:52:00,
2013-01-19 01:07:00,43.8,34.0,30.26,SSE,153,0.0,3.0,69,0.00,,,0.00,weatherlink.com 1.10,2013-01-19 07:07:00,
2013-01-19 01:22:00,43.5,34.0,30.26,WSW,243,1.0,3.0,70,0.00,,,0.00,weatherlink.com 1.10,2013-01-19 07:22:00,
2013-01-19 01:37:00,43.8,35.0,30.26,SSE,154,1.0,4.0,70,0.00,,,0.00,weatherlink.com 1.10,2013-01-19 07:37:00,
2013-01-19 01:52:00,44.0,35.0,30.26,SSE,155,1.0,5.0,70,0.00,,,0.00,weatherlink.com 1.10,2013-01-19 07:52:00,
2013-01-19 02:07:00,43.5,34.0,30.26,SE,138,0.0,4.0,70,0.00,,,0.00,weatherlink.com 1.10,2013-01-19 08:07:00,
2013-01-19 02:22:00,43.2,34.0,30.25,SSE,167,1.0,4.0,71,0.00,,,0.00,weatherlink.com 1.10,2013-01-19 08:22:00,
2013-01-19 02:37:00,42.9,34.0,30.25,SSE,153,2.0,3.0,71,0.00,,,0.00,weatherlink.com 1.10,2013-01-19 08:37:00,
2013-01-19 02:52:00,42.4,34.0,30.25,SE,141,0.0,3.0,72,0.00,,,0.00,weatherlink.com 1.10,2013-01-19 08:52:00,
2013-01-19 03:07:00,41.7,34.0,30.24,SE,145,0.0,2.0,73,0.00,,,0.00,weatherlink.com 1.10,2013-01-19 09:07:00,
2013-01-19 03:22:00,40.1,33.0,30.24,SE,145,0.0,1.0,76,0.00,,,0.00,weatherlink.com 1.10,2013-01-19 09:22:00,
2013-01-19 03:37:00,40.7,34.0,30.24,SSE,167,0.0,3.0,76,0.00,,,0.00,weatherlink.com 1.10,2013-01-19 09:37:00,
2013-01-19 03:52:00,41.3,34.0,30.23,SSE,167,0.0,4.0,75,0.00,,,0.00,weatherlink.com 1.10,2013-01-19 09:52:00,
2013-01-19 04:07:00,41.4,34.0,30.23,SSE,167,0.0,7.0,75,0.00,,,0.00,weatherlink.com 1.10,2013-01-19 10:07:00,
2013-01-19 04:23:00,41.3,34.0,30.22,SE,143,1.0,5.0,75,0.00,,,0.00,weatherlink.com 1.10,2013-01-19 10:23:00,
2013-01-19 04:38:00,41.2,34.0,30.22,SW,222,2.0,7.0,75,0.00,,,0.00,weatherlink.com 1.10,2013-01-19 10:38:00,
2013-01-19 04:53:00,40.9,34.0,30.22,SE,136,1.0,5.0,76,0.00,,,0.00,weatherlink.com 1.10,2013-01-19 10:53:00,
2013-01-19 05:08:00,40.4,33.0,30.22,SSE,165,0.0,5.0,76,0.00,,,0.00,weatherlink.com 1.10,2013-01-19 11:08:00,
2013-01-19 06:53:00,38.6,33.0,30.21,SW,233,1.0,7.0,80,0.00,,,0.00,weatherlink.com 1.10,2013-01-19 12:53:00,
2013-01-19 07:08:00,38.5,33.0,30.21,South,170,1.0,6.0,80,0.00,,,0.00,weatherlink.com 1.10,2013-01-19 13:08:00,
2013-01-19 07:23:00,38.5,33.0,30.21,South,181,0.0,5.0,80,0.00,,,0.00,weatherlink.com 1.10,2013-01-19 13:23:00,
2013-01-19 07:38:00,38.5,33.0,30.21,SSE,154,0.0,4.0,80,0.00,,,0.00,weatherlink.com 1.10,2013-01-19 13:38:00,
2013-01-19 07:53:00,38.5,33.0,30.21,South,179,2.0,4.0,80,0.00,,,0.00,weatherlink.com 1.10,2013-01-19 13:53:00,
2013-01-19 08:08:00,39.2,34.0,30.21,SSE,148,1.0,4.0,80,0.00,,,0.00,weatherlink.com 1.10,2013-01-19 14:08:00,
2013-01-19 08:23:00,40.4,34.0,30.21,SW,215,1.0,5.0,78,0.00,,,0.00,weatherlink.com 1.10,2013-01-19 14:23:00,
2013-01-19 08:38:00,42.5,35.0,30.21,SE,132,2.0,7.0,74,0.00,,,0.00,weatherlink.com 1.10,2013-01-19 14:38:00,
2013-01-19 08:53:00,44.4,36.0,30.22,SE,130,7.0,10.0,71,0.00,,,0.00,weatherlink.com 1.10,2013-01-19 14:53:00,
2013-01-19 09:08:00,46.1,36.0,30.22,SSE,150,2.0,9.0,67,0.00,,,0.00,weatherlink.com 1.10,2013-01-19 15:08:00,
2013-01-19 09:23:00,46.8,35.0,30.23,SW,232,7.0,12.0,65,0.00,,,0.00,weatherlink.com 1.10,2013-01-19 15:23:00,
2013-01-19 09:38:00,47.7,36.0,30.23,ESE,123,2.0,9.0,63,0.00,,,0.00,weatherlink.com 1.10,2013-01-19 15:38:00,
2013-01-19 09:53:00,49.3,36.0,30.24,WSW,250,2.0,7.0,61,0.00,,,0.00,weatherlink.com 1.10,2013-01-19 15:53:00,
2013-01-19 10:08:00,51.3,36.0,30.24,SW,231,8.0,10.0,57,0.00,,,0.00,weatherlink.com 1.10,2013-01-19 16:08:00,
2013-01-19 10:23:00,52.5,37.0,30.25,SW,219,7.0,11.0,55,0.00,,,0.00,weatherlink.com 1.10,2013-01-19 16:23:00,
2013-01-19 10:38:00,54.3,37.0,30.25,SSW,200,7.0,11.0,52,0.00,,,0.00,weatherlink.com 1.10,2013-01-19 16:38:00,
2013-01-19 10:53:00,55.4,36.0,30.24,South,176,5.0,10.0,49,0.00,,,0.00,weatherlink.com 1.10,2013-01-19 16:53:00,
2013-01-19 11:24:00,58.0,37.0,30.23,South,177,1.0,8.0,45,0.00,,,0.00,weatherlink.com 1.10,2013-01-19 17:24:00,
2013-01-19 11:39:00,57.9,37.0,30.22,SW,224,5.0,11.0,46,0.00,,,0.00,weatherlink.com 1.10,2013-01-19 17:39:00,
2013-01-19 11:54:00,58.2,37.0,30.21,SW,233,8.0,11.0,45,0.00,,,0.00,weatherlink.com 1.10,2013-01-19 17:54:00,
2013-01-19 12:24:00,60.1,37.0,30.19,WSW,245,7.0,10.0,42,0.00,,,0.00,weatherlink.com 1.10,2013-01-19 18:24:00,
2013-01-19 12:54:00,60.7,37.0,30.17,SW,224,7.0,10.0,41,0.00,,,0.00,weatherlink.com 1.10,2013-01-19 18:54:00,
2013-01-19 13:24:00,62.1,37.0,30.16,SSW,197,4.0,9.0,39,0.00,,,0.00,weatherlink.com 1.10,2013-01-19 19:24:00,
2013-01-19 13:39:00,62.1,37.0,30.15,SW,228,3.0,9.0,39,0.00,,,0.00,weatherlink.com 1.10,2013-01-19 19:39:00,
2013-01-19 13:54:00,63.0,37.0,30.15,West,269,2.0,7.0,39,0.00,,,0.00,weatherlink.com 1.10,2013-01-19 19:54:00,
2013-01-19 14:09:00,62.6,37.0,30.14,SW,215,5.0,7.0,39,0.00,,,0.00,weatherlink.com 1.10,2013-01-19 20:09:00,
2013-01-19 14:24:00,63.0,37.0,30.14,SSE,159,2.0,8.0,39,0.00,,,0.00,weatherlink.com 1.10,2013-01-19 20:24:00,
2013-01-19 14:39:00,63.5,37.0,30.13,WSW,243,5.0,9.0,38,0.00,,,0.00,weatherlink.com 1.10,2013-01-19 20:39:00,
2013-01-19 14:54:00,64.2,38.0,30.13,SSE,164,3.0,8.0,38,0.00,,,0.00,weatherlink.com 1.10,2013-01-19 20:54:00,
2013-01-19 15:09:00,63.9,37.0,30.13,SE,138,3.0,9.0,37,0.00,,,0.00,weatherlink.com 1.10,2013-01-19 21:09:00,
2013-01-19 15:24:00,63.8,36.0,30.13,SSE,156,5.0,7.0,36,0.00,,,0.00,weatherlink.com 1.10,2013-01-19 21:24:00,
2013-01-19 15:39:00,64.3,37.0,30.13,SW,229,6.0,8.0,37,0.00,,,0.00,weatherlink.com 1.10,2013-01-19 21:39:00,
2013-01-19 16:09:00,65.0,37.0,30.14,SE,139,3.0,9.0,36,0.00,,,0.00,weatherlink.com 1.10,2013-01-19 22:09:00,
2013-01-19 16:24:00,64.8,37.0,30.14,SW,229,3.0,7.0,36,0.00,,,0.00,weatherlink.com 1.10,2013-01-19 22:24:00,
2013-01-19 16:39:00,64.8,37.0,30.14,SSW,204,1.0,8.0,36,0.00,,,0.00,weatherlink.com 1.10,2013-01-19 22:39:00,
2013-01-19 16:54:00,64.4,38.0,30.15,SE,145,2.0,5.0,38,0.00,,,0.00,weatherlink.com 1.10,2013-01-19 22:54:00,
2013-01-19 17:09:00,63.1,38.0,30.15,SW,224,1.0,4.0,39,0.00,,,0.00,weatherlink.com 1.10,2013-01-19 23:09:00,
2013-01-19 17:24:00,61.8,38.0,30.16,SSE,148,0.0,2.0,41,0.00,,,0.00,weatherlink.com 1.10,2013-01-19 23:24:00,
2013-01-19 17:54:00,57.2,36.0,30.15,SSE,152,0.0,1.0,46,0.00,,,0.00,weatherlink.com 1.10,2013-01-19 23:54:00,
2013-01-19 18:10:00,54.5,36.0,30.16,SE,142,0.0,1.0,50,0.00,,,0.00,weatherlink.com 1.10,2013-01-20 00:10:00,
2013-01-19 18:24:00,52.8,36.0,30.16,SSW,195,0.0,2.0,54,0.00,,,0.00,weatherlink.com 1.10,2013-01-20 00:24:00,
2013-01-19 18:39:00,54.2,38.0,30.17,SSE,166,2.0,2.0,55,0.00,,,0.00,weatherlink.com 1.10,2013-01-20 00:39:00,
2013-01-19 18:54:00,54.6,39.0,30.17,SE,143,2.0,4.0,56,0.00,,,0.00,weatherlink.com 1.10,2013-01-20 00:54:00,
2013-01-19 19:09:00,54.2,39.0,30.18,SSE,148,1.0,3.0,57,0.00,,,0.00,weatherlink.com 1.10,2013-01-20 01:09:00,
2013-01-19 19:25:00,53.2,39.0,30.19,SSE,149,1.0,2.0,60,0.00,,,0.00,weatherlink.com 1.10,2013-01-20 01:25:00,
2013-01-19 19:40:00,52.0,39.0,30.19,SSE,150,0.0,1.0,62,0.00,,,0.00,weatherlink.com 1.10,2013-01-20 01:40:00,
2013-01-19 19:56:00,51.3,39.0,30.20,SSE,155,0.0,1.0,64,0.00,,,0.00,weatherlink.com 1.10,2013-01-20 01:56:00,
2013-01-19 20:09:00,51.3,39.0,30.20,SSE,165,2.0,3.0,64,0.00,,,0.00,weatherlink.com 1.10,2013-01-20 02:09:00,
2013-01-19 20:40:00,52.1,40.0,30.21,SSE,154,1.0,3.0,63,0.00,,,0.00,weatherlink.com 1.10,2013-01-20 02:40:00,
2013-01-19 20:54:00,51.0,39.0,30.21,SSE,166,0.0,1.0,64,0.00,,,0.00,weatherlink.com 1.10,2013-01-20 02:54:00,
2013-01-19 21:10:00,45.3,35.0,30.22,SSE,165,0.0,1.0,67,0.00,,,0.00,weatherlink.com 1.10,2013-01-20 03:10:00,
2013-01-19 21:25:00,41.2,34.0,30.23,SSE,165,0.0,1.0,74,0.00,,,0.00,weatherlink.com 1.10,2013-01-20 03:25:00,
2013-01-19 21:40:00,40.4,34.0,30.23,SSE,165,0.0,0.0,77,0.00,,,0.00,weatherlink.com 1.10,2013-01-20 03:40:00,
2013-01-19 21:55:00,39.8,34.0,30.23,SSE,166,0.0,0.0,79,0.00,,,0.00,weatherlink.com 1.10,2013-01-20 03:55:00,
2013-01-19 22:10:00,39.3,34.0,30.23,SSE,165,0.0,0.0,81,0.00,,,0.00,weatherlink.com 1.10,2013-01-20 04:10:00,
2013-01-19 22:25:00,39.0,35.0,30.23,South,178,0.0,0.0,84,0.00,,,0.00,weatherlink.com 1.10,2013-01-20 04:25:00,
2013-01-19 22:40:00,38.6,34.0,30.24,South,175,0.0,0.0,84,0.00,,,0.00,weatherlink.com 1.10,2013-01-20 04:40:00,
2013-01-19 23:10:00,38.2,35.0,30.24,SW,215,0.0,0.0,87,0.00,,,0.00,weatherlink.com 1.10,2013-01-20 05:10:00,
2013-01-19 23:25:00,38.3,35.0,30.24,SW,217,0.0,0.0,87,0.00,,,0.00,weatherlink.com 1.10,2013-01-20 05:25:00,
2013-01-19 23:40:00,38.1,35.0,30.24,SSW,198,0.0,0.0,88,0.00,,,0.00,weatherlink.com 1.10,2013-01-20 05:40:00,
2013-01-19 23:55:00,38.1,35.0,30.24,SSW,204,0.0,0.0,89,0.00,,,0.00,weatherlink.com 1.10,2013-01-20 05:55:00,